[[{"header":{"parameterUnit":"m.s-1","parameterCategory":1,"la1":30.2991,"la2":30.254,"lo1":-89.0895,"lo2":-89.0444,"dy":0.0017,"dx":0.0017,"nx":28,"ny":28,"refTime":"2024-04-14T03:00:00:Z","depth":0,"parameterNumber":2,"parameterNumberName":"U-component_of_WINDS"},"data":[0,0,0,0,0,0,0,0,0,0,0,0,0,0,0,0,0,0,0,0,0,0,0,0,0,0,0,0,0,0,0,0,0,0,0,0,0,0,0,0,0,0,0,0,0,0,0,0,0,0,0,0,0,0,0,0,0,0,0.9714,0.9715,0,0.9831,0.9832,0.9834,0.9892,0.9892,0.9892,0.9892,1.0008,1.0011,1.0015,0,0,0,0,0,0,0,0,0,0,0,0,0,0.9536,0.9539,0.9714,0.9715,0.9717,0.9831,0.9832,0.9834,0.9892,0.9892,0.9892,0.9892,1.0007,1.0011,1.0015,0,0,0,0,0,0,0,0,0,0,0,0,0,0.9629,0.954,0.9713,0.9759,0.9764,0.983,0.9832,0.9834,0.9892,0.9892,0.9892,0.9892,1.0006,1.0011,1.0015,1.0044,0,0,1.003,1.0032,0,0,0,0,0,0,0,0,0.9624,0.9636,0.9751,0.9756,0.9762,0.9847,0.9813,0.9904,0.9892,0.9843,0.9892,0.9892,0.9954,0.9963,0.9985,1.0049,1.0054,1.003,1.0033,1.0035,1.0036,0,0,0,0,0,0,0,0.9617,0.9631,0.976,0.9753,0.9759,0.9773,0.9786,0.983,0.9897,0.9847,0.9852,0.9865,0.9957,0.9981,0.9988,1.0056,1.003,1.0034,1.0037,1.0039,1.0149,1.0149,0,0,0,0,0,0,0.9604,0.9625,0.9756,0.9763,0.9692,0.9776,0.9791,0.982,0.9897,0.9909,0.9865,0.9867,0.9973,0.9983,0.9993,1.0031,1.0035,1.0039,1.0042,1.0148,1.0149,1.0149,0,0,0,0,0,0,0.96,0.9615,0.9752,0.9696,0.9714,0.9779,0.9811,0.9822,0.9845,0.991,0.9922,0.9877,0.9973,0.9986,1.0031,1.0036,1.0041,1.0045,1.0148,1.0148,1.0149,1.0108,0,0,0,0,0,0,0.9595,0.9613,0.9625,0.9695,0.9717,0.9788,0.9811,0.9824,0.9853,0.9858,0.9924,0.9935,0.9974,1.0023,1.0035,1.0042,1.0049,1.0148,1.0148,1.0149,1.0109,1.0106,1.0104,0,0,0,0,0,0.9588,0.9608,0.9626,0.9641,0.9734,0.9789,0.9801,0.9846,0.9853,0.9866,0.9908,0.9933,1.0033,1.0028,1.0041,1.005,1.0148,1.0148,1.0149,1.011,1.0107,1.0104,0,0,0,0,0,0,0.9536,0.9619,0.9639,0.9683,0.9728,0.9798,0.9815,0.9841,0.9885,0.9887,0.994,0.9955,0.9994,1.0027,1.0019,1.0081,1.0093,1.0096,1.0059,1.0057,1.0054,1.0046,1.0053,0,0,0,0,0,0.953,0.9569,0.9638,0.967,0.9693,0.975,0.9775,0.9806,0.9855,0.9875,0.992,0.9965,1.0007,1.0034,1.0076,1.0114,1.0129,1.0126,1.0124,1.0122,1.0124,1.0146,1.0146,1.015,1.015,1.015,0,0,0.9517,0.9567,0.9588,0.9661,0.97,0.9739,0.9766,0.9805,0.9833,0.988,0.9926,0.996,1.0014,1.0056,1.0076,1.0084,1.0126,1.0122,1.012,1.0123,1.0146,1.0146,1.0145,1.015,1.015,1.015,0,0,0.9514,0.9556,0.9587,0.9626,0.9685,0.9723,0.9731,0.9797,0.9822,0.9869,0.9905,0.9939,1.001,1.0047,1.0075,1.0086,1.0111,1.0098,1.0086,1.0107,1.0107,1.0107,1.0111,1.0111,1.0099,1.0099,1.0099,0,0.9491,0.9551,0.96,0.9638,0.9668,0.9713,0.9745,0.978,0.9849,0.9869,0.9876,0.9967,1.0006,1.0057,1.006,1.0081,1.0091,1.0091,1.0103,1.0104,1.0104,1.0108,1.011,1.0097,1.0098,1.0098,1.0098,0,0.9519,0.956,0.9578,0.9645,0.9678,0.9712,0.9765,0.9792,0.982,0.9857,0.9903,0.9952,1.0005,1.002,1.0047,1.0074,1.0077,1.0093,1.0106,1.0101,1.0106,1.0108,1.0095,1.0095,1.0096,1.0096,0,0,0.9486,0.9581,0.9586,0.9618,0.9686,0.9718,0.9754,0.9807,0.9829,0.9875,0.9906,0.9965,0.998,1.0012,1.0044,1.0062,1.0067,1.0077,1.0079,1.0073,1.01,1.0088,1.0089,1.0084,1.0085,1.0085,1.0096,0,0.9493,0.9561,0.9606,0.9656,0.9694,0.9737,0.9768,0.9813,0.9848,0.9885,0.9923,0.9964,0.9982,1.0001,1.0021,1.0062,1.0074,1.0062,1.0113,1.0114,1.0098,1.0092,1.0079,1.0086,1.0098,1.0098,1.0099,0,0.9509,0.9556,0.9609,0.9674,0.9692,0.9719,0.9771,0.9806,0.9857,0.9881,0.9917,0.9949,0.9988,0.9997,1.0051,1.0042,1.0066,1.0089,1.009,1.0097,1.0106,1.0098,1.009,1.0091,1.0102,1.0102,1.0102,0,0.948,0.9556,0.9598,0.9623,0.9699,0.9718,0.975,0.9802,0.983,0.9875,0.9894,0.9943,0.9969,1.0005,1.0049,1.0052,1.0098,1.0111,1.0119,1.0118,1.0127,1.0126,1.0122,1.0141,1.0141,1.0141,1.0141,0,0.9483,0.9514,0.9586,0.9612,0.9648,0.9699,0.9732,0.9768,0.9813,0.9846,0.9886,0.9916,0.9972,1.0009,1.0043,1.0082,1.0094,1.0114,1.0123,1.011,1.0108,1.0126,1.0127,1.0142,1.0142,1.0142,1.0142,0,0.9456,0.9506,0.9555,0.9623,0.9641,0.9665,0.9723,0.9749,0.9786,0.9827,0.984,0.9898,0.9943,0.999,1.0051,1.0074,1.0111,1.0124,1.0094,1.01,1.0104,1.0103,1.0113,1.0117,1.0133,1.0132,1.0132,0,0.9455,0.948,0.9552,0.9577,0.9609,0.9649,0.9679,0.973,0.9759,0.982,0.9838,0.9886,0.9927,0.9997,1.0044,1.009,1.0104,1.0104,1.0111,1.0098,1.0104,1.0102,1.0105,1.0102,1.0101,1.0101,1.0101,0,0.9446,0.947,0.9512,0.9563,0.9598,0.9641,0.9684,0.9702,0.9761,0.9792,0.9839,0.9871,0.9933,0.998,1.0032,1.0065,1.0092,1.0098,1.0102,1.009,1.0072,1.0082,1.0088,1.0098,1.0098,1.0098,1.0098,1.0098,0.9433,0.9457,0.9512,0.9557,0.9596,0.9636,0.9664,0.9705,0.9745,0.9801,0.9828,0.9875,0.9925,0.9998,1.003,1.0066,1.0075,1.0081,1.0082,1.0083,1.008,1.0066,1.0076,1.0076,1.0076,1.0076,1.0076,0,0.9426,0.9464,0.9506,0.9566,0.9602,0.9626,0.9675,0.9703,0.9744,0.979,0.983,0.9883,0.9929,0.998,1.0028,1.0048,1.0061,1.0059,1.0058,1.0065,1.007,1.0061,1.0047,1.0047,1.0047,1.0047,1.0047,1.0047,0.9427,0.947,0.95,0.9562,0.9599,0.9646,0.9672,0.9709,0.9745,0.9804,0.9843,0.9876,0.9923,0.9975,1.0018,1.0032,1.0048,1.0041,1.0058,1.0062,1.0064,1.0067,1.0059,1.0044,1.0044,1.0051,1.0051,1.0051]},{"header":{"parameterUnit":"m.s-1","parameterCategory":1,"la1":30.2991,"la2":30.254,"lo1":-89.0895,"lo2":-89.0444,"dy":0.0017,"dx":0.0017,"nx":28,"ny":28,"refTime":"2024-04-14T03:00:00:Z","depth":0,"parameterNumber":3,"parameterNumberName":"V-component_of_WINDS"},"data":[0,0,0,0,0,0,0,0,0,0,0,0,0,0,0,0,0,0,0,0,0,0,0,0,0,0,0,0,0,0,0,0,0,0,0,0,0,0,0,0,0,0,0,0,0,0,0,0,0,0,0,0,0,0,0,0,0,0,3.2772,3.2773,0,3.2855,3.2856,3.2857,3.2867,3.2866,3.2865,3.2864,3.2945,3.2947,3.295,0,0,0,0,0,0,0,0,0,0,0,0,0,3.2616,3.2619,3.2772,3.2773,3.2774,3.2855,3.2856,3.2857,3.2867,3.2866,3.2865,3.2864,3.2944,3.2947,3.2951,0,0,0,0,0,0,0,0,0,0,0,0,0,3.269,3.262,3.2772,3.2789,3.2791,3.2855,3.2856,3.2858,3.2867,3.2866,3.2864,3.2863,3.2942,3.2947,3.2951,3.3002,0,0,3.2964,3.2966,0,0,0,0,0,0,0,0,3.2686,3.2696,3.2785,3.2788,3.279,3.2849,3.2831,3.2906,3.2867,3.2838,3.2864,3.2863,3.2914,3.292,3.2938,3.3006,3.3009,3.2965,3.2967,3.2969,3.297,0,0,0,0,0,0,0,3.2681,3.2692,3.2805,3.2786,3.279,3.279,3.2799,3.2845,3.2881,3.284,3.2841,3.2851,3.2915,3.2934,3.294,3.3011,3.2965,3.2968,3.2971,3.2973,3.3124,3.3126,0,0,0,0,0,0,3.2673,3.2688,3.2802,3.2807,3.2734,3.2794,3.2804,3.2832,3.2881,3.2887,3.2852,3.2851,3.2927,3.2935,3.2943,3.3007,3.2969,3.2973,3.2976,3.3123,3.3125,3.3126,0,0,0,0,0,0,3.267,3.2683,3.2799,3.2748,3.2763,3.2798,3.2829,3.2834,3.2853,3.289,3.2896,3.2866,3.2927,3.2937,3.2988,3.301,3.2975,3.2979,3.3121,3.3123,3.3125,3.3134,0,0,0,0,0,0,3.2665,3.2682,3.2703,3.2748,3.2765,3.2844,3.283,3.2836,3.2861,3.2861,3.2904,3.291,3.2926,3.2981,3.2992,3.3015,3.2983,3.3119,3.3122,3.3125,3.3132,3.3136,3.314,0,0,0,0,0,3.266,3.2701,3.2704,3.2718,3.2793,3.2845,3.2854,3.2874,3.2863,3.2884,3.2907,3.2909,3.3005,3.2986,3.2999,3.3023,3.3118,3.3121,3.3124,3.313,3.3136,3.314,0,0,0,0,0,0,3.2656,3.2707,3.2711,3.2769,3.2803,3.2846,3.2873,3.2879,3.2915,3.2913,3.2933,3.2943,3.2993,3.3013,3.2991,3.3075,3.306,3.3066,3.3061,3.3066,3.307,3.3064,3.2986,0,0,0,0,0,3.2662,3.2702,3.2744,3.2791,3.2808,3.2837,3.2861,3.2873,3.2908,3.2922,3.2949,3.2981,3.3019,3.3043,3.308,3.3135,3.3144,3.3157,3.3161,3.3164,3.3169,3.32,3.3206,3.3137,3.3136,3.3136,0,0,3.2675,3.2708,3.2731,3.2791,3.2818,3.2858,3.2849,3.2891,3.292,3.2927,3.2978,3.2999,3.3036,3.3089,3.3114,3.3107,3.3191,3.3169,3.3171,3.3174,3.3204,3.321,3.3216,3.3139,3.3138,3.3138,0,0,3.2718,3.2747,3.279,3.2818,3.286,3.288,3.289,3.2933,3.2948,3.2999,3.3005,3.3039,3.3103,3.313,3.3152,3.3205,3.3208,3.3216,3.3237,3.3266,3.3272,3.3277,3.3296,3.3302,3.3221,3.3221,3.3221,0,3.2729,3.279,3.2811,3.2853,3.2879,3.2888,3.2931,3.2956,3.3007,3.3024,3.3016,3.3098,3.3124,3.3183,3.3196,3.3213,3.3225,3.3212,3.3269,3.3275,3.328,3.3298,3.3305,3.3221,3.3221,3.3221,3.3221,0,3.28,3.2842,3.2871,3.2923,3.2951,3.2993,3.3019,3.3045,3.3054,3.3074,3.3125,3.3157,3.32,3.3215,3.3223,3.3275,3.327,3.3265,3.3251,3.3287,3.3304,3.3312,3.3223,3.3222,3.3222,3.3222,0,0,3.2845,3.2908,3.2918,3.2941,3.2988,3.3021,3.3062,3.3106,3.3128,3.3162,3.3197,3.3252,3.3248,3.3273,3.3284,3.331,3.335,3.3302,3.3303,3.331,3.3409,3.3413,3.3421,3.3352,3.3353,3.3354,3.3406,0,3.2895,3.2972,3.2991,3.3056,3.3095,3.3104,3.314,3.3172,3.3191,3.3226,3.3246,3.3285,3.3277,3.3292,3.3317,3.334,3.337,3.3336,3.3384,3.3385,3.3375,3.343,3.3435,3.3482,3.3413,3.3414,3.3415,0,3.2963,3.3001,3.3071,3.3113,3.313,3.3162,3.3204,3.3237,3.3272,3.3284,3.3312,3.3321,3.3363,3.3346,3.3404,3.338,3.3401,3.3414,3.3417,3.3422,3.3403,3.3438,3.3498,3.3505,3.3426,3.3425,3.3425,0,3.299,3.3058,3.3108,3.3128,3.3178,3.3201,3.3222,3.3257,3.3282,3.3317,3.3334,3.3373,3.3394,3.3424,3.3442,3.3428,3.3499,3.3483,3.3509,3.3509,3.3525,3.3524,3.3589,3.3536,3.3536,3.3536,3.3536,0,3.3044,3.3086,3.3121,3.3152,3.3199,3.322,3.3265,3.3287,3.3317,3.3352,3.3361,3.3392,3.3415,3.3449,3.3463,3.3509,3.3518,3.3529,3.3532,3.3529,3.3527,3.3543,3.354,3.3538,3.3538,3.3537,3.3537,0,3.3083,3.3108,3.3163,3.3206,3.3218,3.3251,3.3287,3.3316,3.3336,3.3379,3.339,3.3419,3.346,3.3482,3.3532,3.3541,3.3593,3.3594,3.3582,3.3583,3.3609,3.3606,3.3688,3.3699,3.3637,3.3638,3.3638,0,3.3116,3.3149,3.3196,3.3221,3.3243,3.3282,3.3308,3.3329,3.3355,3.3398,3.3422,3.3464,3.3498,3.3562,3.3587,3.3625,3.3628,3.3654,3.3634,3.3629,3.3629,3.3628,3.3631,3.3658,3.3658,3.3659,3.3659,0,3.3173,3.3184,3.3222,3.3265,3.3296,3.333,3.3363,3.3382,3.3408,3.3437,3.348,3.3506,3.3558,3.3599,3.3639,3.3659,3.3663,3.3665,3.3673,3.367,3.3662,3.3668,3.3592,3.3663,3.3663,3.3662,3.3662,3.3662,3.3211,3.3241,3.3279,3.3321,3.3348,3.3379,3.3409,3.3433,3.3469,3.3514,3.3523,3.3568,3.3602,3.3657,3.3678,3.3712,3.3707,3.3719,3.3722,3.3725,3.3726,3.3656,3.3719,3.3719,3.3719,3.3719,3.3719,0,3.327,3.3294,3.3333,3.338,3.3413,3.3415,3.3451,3.3478,3.3518,3.355,3.3584,3.3632,3.3672,3.3699,3.3739,3.3761,3.3764,3.3771,3.377,3.3775,3.3728,3.3718,3.3768,3.3768,3.3768,3.3768,3.3768,3.3768,3.3304,3.3355,3.337,3.3434,3.3457,3.3503,3.3524,3.3552,3.3577,3.3632,3.3665,3.3684,3.3713,3.3755,3.3791,3.3798,3.3812,3.3819,3.3827,3.3783,3.3778,3.3773,3.3763,3.3822,3.3822,3.387,3.3871,3.3871]}]]